• Join FlightAware (Why Join?)
  • Login
  • US Flag 
05:25PM EST


 

Airport Tracker/Info


-or-


 

Live Flight TrackerFlight Track Log ✈ SKW5631 ✈ 03-Oct-2013 ✈ KSFO - KBUR

Flight Track Log - Related Links

Times and Time Zones

All times are in EDT time to prevent confusion due to time zone crossing. See the SKW5631 flight status page for this flight to view local times or setup timezone preferences in your user account.

Time Position Orientation Groundspeed Altitude Reporting Facility
EDT Latitude Longitude Course Direction KTS MPH feet Rate Location/Type
10:20PM 37.6333 -122.3667 360° North 152 175 1,400  Level Northern Cal TRACON
10:21PM 37.6667 -122.3667 360° North 162 186 3,800 2,684 Climbing Northern Cal TRACON
10:22PM 37.7000 -122.4000 322° Northwest 223 257 6,500 2,723 Climbing Northern Cal TRACON
10:23PM 37.6500 -122.4500 218° Southwest 254 292 9,200 1,773 Climbing Northern Cal TRACON
10:24PM 37.5675 -122.4503 180° South 292 336 10,400 1,522 Climbing Oakland Center
10:25PM 37.5053 -122.3781 137° Southeast 304 350 12,600 2,244 Climbing Oakland Center
10:26PM 37.4250 -122.2911 139° Southeast 317 365 15,000 2,016 Climbing Oakland Center
10:27PM 37.3553 -122.2167 140° Southeast 328 377 16,700 1,610 Climbing Oakland Center
10:28PM 37.2842 -122.1378 139° Southeast 340 391 18,300 1,659 Climbing Oakland Center
10:29PM 37.2094 -122.0569 139° Southeast 351 404 20,100 1,574 Climbing Oakland Center
10:30PM 37.1339 -121.9772 140° Southeast 355 409 21,500 1,279 Climbing Oakland Center
10:31PM 37.0553 -121.8919 139° Southeast 372 428 22,700 1,122 Climbing Oakland Center
10:32PM 36.9747 -121.8078 140° Southeast 377 434 23,800 1,073 Climbing Oakland Center
10:33PM 36.8900 -121.7222 141° Southeast 389 448 24,900 1,180 Climbing Oakland Center
10:34PM 36.7950 -121.6214 140° Southeast 395 455 26,200 1,024 Climbing Oakland Center
10:35PM 36.7100 -121.5311 140° Southeast 400 460 27,000 390 Climbing Oakland Center
10:36PM 36.6233 -121.4403 140° Southeast 406 467 27,000  Level Oakland Center
10:37PM 36.5378 -121.3519 140° Southeast 402 463 27,000  Level Oakland Center
10:38PM 36.4544 -121.2619 139° Southeast 398 458 27,000  Level Oakland Center
10:39PM 36.3694 -121.1728 140° Southeast 399 459 27,000  Level Oakland Center
10:40PM 36.2850 -121.0858 140° Southeast 398 458 27,000  Level Oakland Center
10:41PM 36.1839 -120.9800 140° Southeast 397 457 27,000  Level Oakland Center
10:43PM 36.1000 -120.8919 140° Southeast 396 456 27,000  Level Oakland Center
10:44PM 36.0167 -120.8053 140° Southeast 394 453 27,000  Level Oakland Center
10:45PM 35.9328 -120.7189 140° Southeast 392 451 27,000  Level Oakland Center
10:46PM 35.8492 -120.6328 140° Southeast 392 451 27,000  Level Oakland Center
10:47PM 35.7642 -120.5458 140° Southeast 394 453 27,000  Level Oakland Center
10:48PM 35.6808 -120.4597 140° Southeast 393 452 27,000  Level Oakland Center
10:49PM 35.5967 -120.3742 140° Southeast 391 450 27,000 -439 Level Oakland Center
10:50PM 35.5025 -120.2792 141° Southeast 382 440 26,100 -919 Descending Los Angeles Center
10:51PM 35.4242 -120.1992 140° Southeast 371 427 25,100 -968 Descending Los Angeles Center
10:52PM 35.3450 -120.1183 140° Southeast 369 425 24,100 -919 Descending Los Angeles Center
10:53PM 35.2722 -120.0447 140° Southeast 370 426 23,200 -1,024 Descending Los Angeles Center
10:54PM 35.1769 -119.9494 141° Southeast 369 425 22,000 -1,073 Descending Los Angeles Center
10:55PM 35.0983 -119.8703 141° Southeast 366 421 21,000 -968 Descending Los Angeles Center
10:56PM 35.0300 -119.7814 133° Southeast 362 417 20,000 -976 Descending Los Angeles Center
10:57PM 34.9664 -119.6933 131° Southeast 352 405 19,000 -1,024 Descending Los Angeles Center
10:58PM 34.9011 -119.6064 132° Southeast 348 400 17,900 -1,016 Descending Los Angeles Center
10:59PM 34.8372 -119.5200 132° Southeast 344 396 16,900 -976 Descending Los Angeles Center
11:00PM 34.7742 -119.4381 133° Southeast 336 387 15,900 -1,073 Descending Los Angeles Center
11:01PM 34.7006 -119.3383 132° Southeast 332 382 14,700 -1,065 Descending Los Angeles Center
11:02PM 34.6389 -119.2564 132° Southeast 329 379 13,700 -919 Descending Los Angeles Center
11:03PM 34.5842 -119.1833 132° Southeast 325 374 12,800 -927 Descending Los Angeles Center
11:04PM 34.5233 -119.1036 133° Southeast 324 373 11,800 -1,073 Descending Los Angeles Center
11:05PM 34.4522 -119.0100 133° Southeast 314 361 10,600 -1,210 Descending Los Angeles Center
11:06PM 34.3964 -118.9328 131° Southeast 306 352 9,300 -1,317 Descending Los Angeles Center
11:07PM 34.3347 -118.8675 139° Southeast 295 339 7,900 -1,317 Descending Los Angeles Center
11:08PM 34.2639 -118.8208 151° Southeast 288 331 6,600 -774 Descending Los Angeles Center
11:09PM 34.2089 -118.7750 145° Southeast 247 284 6,300 -758 Descending Los Angeles Center
11:11PM 34.2000 -118.6500 95° East 174 200 4,300 -900 Descending Southern California TRACON
11:12PM 34.2000 -118.5833 90° East 164 189 3,600 -650 Descending Southern California TRACON
11:13PM 34.2000 -118.5333 90° East 164 189 3,000 -500 Descending Southern California TRACON
11:14PM 34.2000 -118.4833 90° East 152 175 2,600 -579 Descending Southern California TRACON
11:15PM 34.2000 -118.4333 90° East 145 167 1,900 -762 Descending Southern California TRACON
11:16PM 34.2000 -118.3833 90° East 140 161 1,000 -750 Descending Southern California TRACON